Aérodrome :
LOGIN :

S'inscrire | Disclaimer

   EN    FR    IT 

 










Légende :    VFR   VFR Marginal   IFR   IFR Intensif   IFR Très Intensif
Visi : 
Plafond : 
>= 8 km
>= 3000ft
5 à 8 km
1000 à 3000 ft
1500m à 5 km
500 à 1000 ft
800 à 1500m
200 à 500 ft
< 800m
< 200 ft
Symboles :   Orages  Brouillard  Fortes neiges  Fortes précipitations  Vent > 20 kt
SIGMETs :   Divers  Orages  Givrage  Turbulence  Onde Orograph.  Cendres Volcan.







- Altitude de l'aérodrome : 19 ft
- Code IATA : LCY
- Voir les cartes d'approche


EGLC - London City

DERNIER METAR :
  • 212220Z AUTO 05004KT 350V100 5000 HZ BKN009 OVC020 05/03 Q1026

METARs EXPIRÉS :
  • 212150Z AUTO VRB04KT 5000 -RADZ BKN011 OVC026 05/03 Q1026
  • 212120Z AUTO 06006KT 7000 BKN013 OVC026 05/02 Q1026
  • 212050Z AUTO 07005KT 7000 BKN012 OVC016 05/03 Q1026
  • 212020Z AUTO 08004KT 6000 BKN012 OVC020 05/02 Q1026
  • 211950Z AUTO 06004KT 020V100 5000 HZ BKN012 06/02 Q1026

Prévision TAF périmée.
ATIS : +44 20 7646 0224
Pas de NOTAMs connus pour ce terrain.



MET'MAP, la Météo Aéronautique d'un coup d'oeil ! - Copyright ORBIFLY Décembre 2007 - Disclaimer

ORBIFLY MET'MAP TEAM :

Programmation & Développement : Alexandra Zaïnal
Conception & Développement : Baudouin d'Aumeries
Co-Programmation & Développement : Marc-Olivier Méhu
Soutien technique & logistique : Manuel Goepfert

Contact : metmap@orbifly.com




SOURCES & CREDITS :

   NOAA